Blue Canyon, CA

11:21 AM PDT on June 20, 2018 (GMT -0700)
Blue Canyon-Nyack

Weather History for KBLU - October, 2017

Change the Weather History Date:

Wednesday, October 11, 2017

  Actual Average Record
Temperature  
Mean Temperature 48 °F -  
Max Temperature 54 °F 61 °F 78 °F (1950)
Min Temperature 42 °F 45 °F 29 °F (1981)
Degree Days  
Heating Degree Days 18    
Moisture  
Dew Point 25 °F    
Average Humidity 38    
Maximum Humidity 44    
Minimum Humidity 27    
Precipitation  
Precipitation 0.00 in - - ()
Sea Level Pressure  
Sea Level Pressure 29.98 in    
Wind  
Wind Speed 6 mph (South)    
Max Wind Speed 14 mph    
Max Gust Speed 21 mph    
Visibility 4 miles    
Events      
Averages and records for this station are not official NWS values.
T = Trace of Precipitation, MM = Missing Value Source: NWS Daily Summary

Daily Weather History Graph

Daily Weather History Graph

Search for Another Location

Airport or City:

Astronomy

Oct. 11, 2017 Rise Set
Actual Time 7:08 AM PDT 6:29 PM PDT
Civil Twilight 6:42 AM PDT 6:56 PM PDT
Nautical Twilight 6:11 AM PDT 7:27 PM PDT
Astronomical Twilight 5:39 AM PDT 7:58 PM PDT
Moon 11:39 PM PDT (10/11) 1:28 PM PDT (10/11)
Length of Visible Light 12h 14m
Length of Day
11h 20m
Waning Gibbous, 58% of the Moon is Illuminated
Oct 11
Waning Gibbous
Oct 12
Last Quarter
Oct 19
New
Oct 27
First Quarter
Nov 3
Full

Hourly Weather History & Observations

Time (PDT) Temp. Windchill Dew Point Humidity Pressure Visibility Wind Dir Wind Speed Gust Speed Precip Events Conditions
12:52 AM 50.0 °F - 21.9 °F 33% 29.84 in 6.0 mi Calm Calm - N/A   Haze
2:23 AM 48.9 °F - 21.0 °F 33% 30.01 in 7.0 mi SSE 3.5 mph - N/A   Scattered Clouds
2:52 AM 48.0 °F - 21.9 °F 36% 29.84 in 5.0 mi SE 4.6 mph - N/A   Haze
3:52 AM 48.0 °F - 21.9 °F 36% 29.83 in 10.0 mi South 4.6 mph - N/A   Clear
4:44 AM 46.9 °F - 23.0 °F 39% 29.99 in 6.0 mi South 5.8 mph - N/A   Haze
4:52 AM 46.0 °F 43.1 °F 23.0 °F 40% 29.84 in 6.0 mi SSE 5.8 mph - N/A   Haze
5:08 AM 46.9 °F - 23.0 °F 39% 29.98 in 5.0 mi SE 5.8 mph - N/A   Haze
5:52 AM 46.0 °F 43.1 °F 23.0 °F 40% 29.86 in 4.0 mi SE 5.8 mph - N/A   Haze
6:52 AM 46.9 °F - 24.1 °F 41% 29.86 in 6.0 mi South 8.1 mph - N/A   Haze
7:52 AM 46.0 °F 42.5 °F 23.0 °F 40% 29.89 in 5.0 mi SSE 6.9 mph - N/A   Haze
8:49 AM 48.2 °F - 24.8 °F 40% 30.02 in 2.0 mi SSE 6.9 mph - N/A   Haze
8:52 AM 48.0 °F - 24.1 °F 39% 29.90 in 1.8 mi South 6.9 mph - N/A   Haze
9:08 AM 48.9 °F - 25.0 °F 39% 30.02 in 1.2 mi South 5.8 mph - N/A   Haze
9:52 AM 50.0 °F - 26.1 °F 39% 29.91 in 1.0 mi South 6.9 mph - N/A   Haze
10:23 AM 51.1 °F - 27.0 °F 39% 30.04 in 1.0 mi Variable 5.8 mph - N/A   Haze
10:37 AM 50.0 °F - 27.0 °F 41% 30.04 in 0.8 mi SSW 11.5 mph - N/A   Haze
10:50 AM 50.0 °F - 28.4 °F 43% 30.04 in 1.2 mi SW 6.9 mph - N/A   Haze
10:52 AM 51.1 °F - 28.0 °F 41% 29.92 in 1.2 mi SW 8.1 mph - N/A   Haze
11:01 AM 51.1 °F - 28.9 °F 43% 30.05 in 1.5 mi SSW 9.2 mph - N/A   Haze
11:14 AM 51.1 °F - 28.9 °F 43% 30.05 in 2.0 mi SW 10.4 mph - N/A   Haze
11:21 AM 52.0 °F - 28.9 °F 41% 30.05 in 1.8 mi SW 6.9 mph - N/A   Haze
11:52 AM 52.0 °F - 28.9 °F 41% 29.93 in 2.0 mi South 13.8 mph 20.7 mph N/A   Haze
12:18 PM 53.1 °F - 30.0 °F 41% 30.05 in 1.5 mi SSW 11.5 mph 19.6 mph N/A   Haze
12:52 PM 52.0 °F - 28.9 °F 41% 29.93 in 1.5 mi Variable 6.9 mph - N/A   Haze
1:01 PM 52.0 °F - 30.0 °F 43% 30.05 in 1.2 mi Variable 5.8 mph - N/A   Haze
1:20 PM 51.1 °F - 30.0 °F 44% 30.05 in 1.5 mi SSW 6.9 mph - N/A   Haze
1:33 PM 51.1 °F - 28.9 °F 43% 30.05 in 1.5 mi SW 9.2 mph - N/A   Haze
1:49 PM 51.8 °F - 28.4 °F 41% 30.05 in 1.2 mi Variable 6.9 mph - N/A   Haze
1:50 PM 51.1 °F - 28.9 °F 43% 29.93 in 1.2 mi SSW 6.9 mph - N/A   Haze
2:18 PM 52.0 °F - 30.0 °F 43% 30.05 in 1.8 mi SW 8.1 mph - N/A   Haze
2:39 PM 51.1 °F - 30.0 °F 44% 30.05 in 2.0 mi West 6.9 mph - N/A   Haze
2:52 PM 52.0 °F - 30.0 °F 43% 29.94 in 2.0 mi Variable 5.8 mph 17.3 mph N/A   Haze
3:28 PM 52.0 °F - 28.0 °F 40% 30.05 in 3.0 mi Variable 5.8 mph - N/A   Haze
3:52 PM 52.0 °F - 26.1 °F 37% 29.94 in 3.0 mi SW 5.8 mph - N/A   Haze
4:52 PM 51.1 °F - 24.1 °F 35% 29.96 in 3.0 mi Variable 4.6 mph - N/A   Haze
5:34 PM 50.0 °F - 17.6 °F 28% 30.06 in 4.0 mi Variable 5.8 mph - N/A   Haze
5:52 PM 50.0 °F - 17.1 °F 27% 29.96 in 5.0 mi Variable 3.5 mph - N/A   Haze
6:52 PM 45.0 °F - 17.1 °F 33% 29.98 in 10.0 mi Calm Calm - N/A   Clear
7:52 PM 45.0 °F 40.1 °F 15.1 °F 30% 29.99 in 10.0 mi NW 9.2 mph - N/A   Clear
8:52 PM 44.1 °F 41.5 °F 16.0 °F 32% 29.99 in 10.0 mi NNE 4.6 mph - N/A   Clear
9:52 PM 43.0 °F 39.5 °F 16.0 °F 34% 29.99 in 7.0 mi NE 5.8 mph - N/A   Clear
10:52 PM 42.1 °F 39.2 °F 17.1 °F 37% 29.99 in 6.0 mi ENE 4.6 mph - N/A   Haze
11:52 PM 43.0 °F 38.8 °F 12.9 °F 30% 29.98 in 7.0 mi NE 6.9 mph - N/A   Clear